sat.trackr.live / text

‹ back to catalog

STARLINK-36923

NORAD 68016 · 2026-040B

PAYLOAD ACTIVE UNKNOWN

§ Identity

Operator
Country
US
Launch date
2026-03-01
Launch site
AFWTR
Launch vehicle
Mass (kg)
RCS (m²)

Purposes: comms

External: N2YO · Heavens-Above · Gunter

§ Orbital elements

Epoch: 2026-05-25T03:04:31.060992Z

Period
93.91 min
Inclination
97.2846°
Eccentricity
0.0001254
Mean motion
15.33450330 rev/d
Perigee alt
464.7 km
Apogee alt
466.4 km
Semi-major
6,843.7 km
B*
5.7682e-4
RAAN
94.0862°
Arg perigee
101.4634°
Mean anomaly
258.6750°
Rev number
1,317

§ Raw data

STARLINK-369231 68016U 26040B   26145.12813728  .00018596  00000+0  57682-3 0  99922 68016  97.2846  94.0862 0001254 101.4634 258.6750 15.33450330 13171

JSON: /api/v1/satellites/68016 · /tle

For live sub-satellite position, see the globe view (requires WebGL).

§ Visibility from observer

Set your observer location to see the next 7 days of passes ≥ 10°. The values pass through the URL so the page stays shareable.

No JS? Fill the form by hand. The geolocation button needs JavaScript.